{"data":{"norad_id":60573,"epoch":"2026-09-22T16:28:17.990976Z","epoch_age_seconds":100121,"freshness":"FRESH","line1":"1 60573U 24149DK  26265.68631934  .00001032  00000+0  99280-4 0  9999","line2":"2 60573  97.6698 337.6205 0004765 109.4204 250.7532 14.95100570114480","mean_motion":14.9510057,"eccentricity":0.0004765,"inclination_deg":97.6698,"raan_deg":337.6205,"arg_perigee_deg":109.4204,"mean_anomaly_deg":250.7532,"bstar":9.928e-5,"rev_number":11448,"period_min":96.3145910646,"perigee_km":578.74407456463,"apogee_km":585.37714288575,"semimajor_km":6960.1976087252,"source":"CELESTRAK","updated_at":"2026-09-23T09:00:20.702712Z"}}